Content
SEND FEEDBACK

Daily
Averages
Monthly
Summary
United States of America

WESTBY, WISCONSIN


Home > North America > United States > Wisconsin
Elevation: 1360 feet     Latitude: 43 40N     Longitude: 090 49W

WEATHER
 
SELECT A DAY
Number of Records: 117,833;   Date Range: 12/16/09 - 12/24/14
 
SHARE

PRINT THIS DATA

[ ← Previous Day ]
WEATHER ALMANAC - JANUARY 23, 2013
[ Next Day → ]
[ °C ]   °F
Weather ElementAverageHighLow
Temperature10.4 °F19.4 °F (1:15 pm)-0.4 °F (10:55 pm)
Dewpoint3.4 °F14 °F (1:55 pm)-11.2 °F (11:15 pm)
Humidity73.7 %92 % (7:55 am)60 % (11:15 pm)
Barometer30.18 in30.44 in (11:55 pm)30.04 in (1:55 pm)
Wind Speed12 mph24.2 mph (5:55 pm)
Wind Gust34.5 mph (5:55 pm)
Weather ElementAverage
Visibility6.8 mi
Wind DirectionWNW (276.8 °)

Weather ElementTotal
Precipitation---
Heating Degree Days55.5 (Base 65)
Averaged from 62 records on January 23, 2013
WEATHER CONDITIONS BREAKOUT
WIND DIRECTION BREAKOUT
WEATHER BY HOUR - JANUARY 23, 2013
[ °C ]   °F
Local TimeTemperatureDewpointHumidityBarometerVisibilityWind DirectionWind SpeedGust SpeedPrecipitationEventsConditions
12:35 AM6.8 °F-2.2 °F67 %30.20 in10.0 miSW (230°)6.9 mphOvercast
12:55 AM6.8 °F-0.4 °F72 %30.20 in10.0 miWSW (240°)6.9 mphOvercast
1:15 AM8.6 °F-0.4 °F67 %30.20 in10.0 miWSW (240°)9.2 mphOvercast
1:35 AM8.6 °F-0.4 °F67 %30.19 in10.0 miWSW (240°)8.1 mphOvercast
1:55 AM8.6 °F-0.4 °F67 %30.20 in10.0 miWSW (240°)5.8 mphOvercast
2:15 AM8.6 °F-0.4 °F67 %30.19 in10.0 miWSW (240°)6.9 mphOvercast
2:55 AM8.6 °F1.4 °F73 %30.19 in10.0 miSW (230°)6.9 mphOvercast
3:15 AM8.6 °F1.4 °F73 %30.18 in10.0 miWSW (240°)6.9 mphOvercast
3:55 AM8.6 °F1.4 °F73 %30.17 in10.0 miSW (230°)4.6 mphOvercast
4:15 AM10.4 °F1.4 °F67 %30.16 in10.0 miSSW (210°)5.8 mphOvercast
4:35 AM10.4 °F3.2 °F73 %30.15 in10.0 miSW (220°)5.8 mphOvercast
4:55 AM10.4 °F3.2 °F73 %30.15 in10.0 miSSW (210°)5.8 mphOvercast
5:15 AM10.4 °F3.2 °F73 %30.14 in10.0 miSSW (210°)5.8 mphOvercast
5:35 AM10.4 °F3.2 °F73 %30.14 in5.0 miSSW (210°)8.1 mphOvercast
5:55 AM10.4 °F5.0 °F79 %30.14 in2.0 miSSW (210°)8.1 mphOvercast
6:15 AM10.4 °F5.0 °F79 %30.13 in3.0 miSouth (190°)5.8 mphOvercast
6:35 AM10.4 °F5.0 °F79 %30.13 in4.0 miSSW (200°)5.8 mphOvercast
6:55 AM10.4 °F6.8 °F85 %30.13 in2.5 miSSW (210°)6.9 mphOvercast
7:15 AM10.4 °F6.8 °F85 %30.12 in2.0 miSSW (210°)8.1 mphOvercast
7:55 AM10.4 °F8.6 °F92 %30.11 in1.5 miSSW (210°)8.1 mphOvercast
8:15 AM10.4 °F8.6 °F92 %30.11 in1.5 miSW (220°)5.8 mphOvercast
8:35 AM10.4 °F8.6 °F92 %30.11 in1.8 miSSW (210°)8.1 mphOvercast
8:55 AM12.2 °F8.6 °F85 %30.11 in3.0 miSW (220°)6.9 mphOvercast
9:35 AM12.2 °F8.6 °F85 %30.12 in2.5 miSW (220°)9.2 mphOvercast
9:55 AM14.0 °F10.4 °F86 %30.11 in2.0 miSW (230°)8.1 mphOvercast
10:15 AM14.0 °F10.4 °F86 %30.12 in2.0 miWSW (240°)9.2 mphOvercast
10:35 AM14.0 °F10.4 °F86 %30.11 in1.8 miWSW (240°)10.4 mphOvercast
10:55 AM15.8 °F10.4 °F79 %30.10 in3.0 miWSW (240°)12.7 mphOvercast
11:15 AM17.6 °F12.2 °F79 %30.10 in5.0 miWSW (250°)11.5 mphOvercast
11:55 AM17.6 °F12.2 °F79 %30.08 in5.0 miWest (280°)6.9 mphOvercast
12:15 PM17.6 °F12.2 °F79 %30.07 in4.0 miWest (280°)10.4 mphOvercast
12:35 PM17.6 °F12.2 °F79 %30.06 in4.0 miWest (270°)10.4 mphOvercast
12:55 PM17.6 °F12.2 °F79 %30.05 in2.5 miWest (280°)9.2 mphOvercast
1:15 PM19.4 °F12.2 °F74 %30.05 in5.0 miWest (270°)12.7 mph17.3 mphOvercast
1:55 PM17.6 °F14.0 °F86 %30.04 in2.5 miWNW (300°)10.4 mph16.1 mphOvercast
2:15 PM17.6 °F12.2 °F79 %30.04 in2.5 miNW (310°)17.3 mph21.9 mphOvercast
2:35 PM17.6 °F12.2 °F79 %30.06 in5.0 miWNW (300°)16.1 mph20.7 mphOvercast
2:55 PM17.6 °F10.4 °F73 %30.06 in10.0 miWNW (290°)15.0 mph20.7 mphOvercast
3:15 PM17.6 °F10.4 °F73 %30.07 in10.0 miWNW (300°)16.1 mphMostly Cloudy
3:55 PM17.6 °F8.6 °F68 %30.09 in7.0 miNW (310°)17.3 mph25.3 mphOvercast
4:15 PM17.6 °F8.6 °F68 %30.09 in7.0 miNW (310°)17.3 mph25.3 mphOvercast
4:35 PM15.8 °F10.4 °F79 %30.10 in1.5 miNW (320°)21.9 mph26.5 mphOvercast
4:55 PM14.0 °F10.4 °F86 %30.11 in5.0 miNW (310°)18.4 mph25.3 mphOvercast
5:15 PM14.0 °F6.8 °F73 %30.12 in10.0 miNW (320°)21.9 mph27.6 mphOvercast
5:55 PM12.2 °F5.0 °F73 %30.17 in7.0 miNNW (340°)24.2 mph34.5 mphMostly Cloudy
6:15 PM10.4 °F3.2 °F73 %30.19 in10.0 miNNW (330°)24.2 mph33.4 mphScattered Clouds
6:35 PM10.4 °F-0.4 °F62 %30.21 in10.0 miNNW (340°)20.7 mph32.2 mphScattered Clouds
6:55 PM8.6 °F-2.2 °F62 %30.24 in10.0 miNNW (330°)21.9 mph27.6 mphClear
7:15 PM8.6 °F-0.4 °F67 %30.25 in10.0 miNNW (330°)17.3 mph21.9 mphScattered Clouds
7:35 PM8.6 °F-0.4 °F67 %30.25 in10.0 miNorth (350°)21.9 mph34.5 mphMostly Cloudy
7:55 PM6.8 °F-0.4 °F72 %30.28 in4.0 miNorth (350°)19.6 mph28.8 mphMostly Cloudy
8:35 PM5.0 °F-5.8 °F61 %30.32 in10.0 miNNW (340°)19.6 mph24.2 mphMostly Cloudy
8:55 PM3.2 °F-5.8 °F66 %30.33 in10.0 miNorth (350°)16.1 mph27.6 mphMostly Cloudy
9:15 PM3.2 °F-7.6 °F61 %30.34 in10.0 miNorth (350°)13.8 mph19.6 mphClear
9:35 PM1.4 °F-7.6 °F66 %30.36 in10.0 miNorth (350°)13.8 mphClear
9:55 PM1.4 °F-7.6 °F66 %30.37 in10.0 miNorth (350°)13.8 mphClear
10:15 PM1.4 °F-9.4 °F61 %30.37 in10.0 miNorth (350°)16.1 mph20.7 mphClear
10:35 PM1.4 °F-9.4 °F61 %30.39 in10.0 miNorth (350°)16.1 mph21.9 mphClear
10:55 PM-0.4 °F-9.4 °F66 %30.40 in10.0 miNorth (350°)13.8 mphClear
11:15 PM-0.4 °F-11.2 °F60 %30.42 in10.0 miNorth (350°)9.2 mphClear
11:35 PM-0.4 °F-11.2 °F60 %30.42 in10.0 miNorth (360°)12.7 mph18.4 mphClear
11:55 PM-0.4 °F-11.2 °F60 %30.44 in10.0 miNorth (350°)8.1 mphClear
Hourly data recorded from KY51, located miles away from Westby, Wisconsin







STORIES FROM OUR PARTNERS